This demonstration page uses our WeatherBlox Daily Observations layout. Learn more.

Left ArrowRight Arrow

Hourly Observations for October 6, 2016

Temp ( °F °C ) Dew Point ( °F °C ) Humidity (%) Winds ( mph kmh ) Pressure ( in mb ) Visibility ( mi km ) Precip ( " mm )
12:53 am 00:53 Mostly Cloudy 32 0 29 -1.7 88 88 SW 8 13 30.13 1020 10 16 0.00 0.00
1:53 am 01:53 Mostly Cloudy 33 0.6 29 -1.7 85 85 WNW 10 17 30.14 1021 10 16 0.00 0.00
2:53 am 02:53 Mostly Clear 31 -0.6 29 -1.7 92 92 W 8 13 30.15 1021 10 16 0.00 0.00
3:53 am 03:53 Clear 31 -0.6 28 -2.2 89 89 WNW 8 13 30.16 1021 10 16 0.00 0.00
4:53 am 04:53 Clear 30 -1.1 27 -2.8 88 88 W 7 11 30.17 1022 10 16 0.00 0.00
5:43 am 05:43 Mostly Cloudy 30 -1.1 28 -2.2 92 92 WSW 6 9 30.21 1023 10 16 0.00 0.00
5:53 am 05:53 Mostly Cloudy 30 -1.1 28 -2.2 92 92 WSW 6 9 30.19 1022 10 16 0.00 0.00
6:12 am 06:12 Partly Cloudy 30 -1 28 -2 93 93 SW 8 13 30.21 1023 10 16 0.00 0.00
6:53 am 06:53 Partly Cloudy 29 -1.7 27 -2.8 92 92 WSW 8 13 30.20 1023 10 16 0.00 0.00
7:53 am 07:53 Sunny 29 -1.7 27 -2.8 92 92 WSW 10 17 30.22 1023 10 16 0.00 0.00
8:37 am 08:37 Mostly Cloudy 31 -0.6 27 -2.8 85 85 WSW 9 15 30.24 1024 10 16 0.00 0.00
8:53 am 08:53 Cloudy 31 -0.6 28 -2.2 89 89 WSW 8 13 30.24 1024 10 16 0.00 0.00
9:49 am 09:49 Partly Cloudy 34 1 27 -3 75 75 W 10 17 30.27 1025 10 16 0.00 0.00
9:53 am 09:53 Partly Cloudy 34 1.1 27 -2.8 76 76 W 10 17 30.25 1025 10 16 0.00 0.00
10:32 am 10:32 Mostly Cloudy 34 1 27 -3 75 75 NW 13 20 30.27 1025 10 16 0.00 0.00
10:43 am 10:43 Partly Cloudy 35 1.7 27 -2.8 72 72 NW 12 19 30.30 1026 10 16 0.00 0.00
10:53 am 10:53 Mostly Cloudy 36 2.2 27 -2.8 70 70 NW 12 19 30.26 1025 10 16 0.00 0.00
11:14 am 11:14 Partly Cloudy 36 2 27 -3 70 70 NW 12 19 30.30 1026 10 16 0.00 0.00
11:53 am 11:53 Mostly Cloudy 38 3.3 27 -2.8 65 65 NNW 13 20 30.27 1025 10 16 0.00 0.00
12:06 pm 12:06 Partly Cloudy 37 3 27 -3 65 65 WNW 10 17 30.27 1025 10 16 0.00 0.00
12:53 pm 12:53 Sunny 39 3.9 26 -3.3 60 60 WNW 10 17 30.28 1025 10 16 0.00 0.00
1:53 pm 13:53 Sunny 41 5 27 -2.8 57 57 W 13 20 30.27 1025 10 16 0.00 0.00
2:53 pm 14:53 Sunny 43 6.1 25 -3.9 49 49 NNW 14 22 30.26 1025 10 16 0.00 0.00
3:53 pm 15:53 Sunny 43 6.1 25 -3.9 49 49 NW 10 17 30.27 1025 10 16 0.00 0.00
4:53 pm 16:53 Sunny 43 6.1 25 -3.9 49 49 WNW 6 9 30.27 1025 10 16 0.00 0.00
5:53 pm 17:53 Sunny 42 5.6 24 -4.4 49 49 N 8 13 30.28 1026 10 16 0.00 0.00
6:53 pm 18:53 Clear 37 2.8 26 -3.3 65 65 NNE 6 9 30.31 1026 10 16 0.00 0.00
7:53 pm 19:53 Clear 33 0.6 27 -2.8 78 78 ENE 12 19 30.34 1028 10 16 0.00 0.00
8:53 pm 20:53 Clear 30 -1.1 26 -3.3 85 85 E 25 41 30.36 1028 10 16 0.00 0.00
9:53 pm 21:53 Clear 29 -1.7 26 -3.3 89 89 E 20 31 30.36 1028 10 16 0.00 0.00
10:53 pm 22:53 Clear 28 -2.2 25 -3.9 88 88 E 16 26 30.37 1028 10 16 0.00 0.00
11:53 pm 23:53 Clear 28 -2.2 25 -3.9 88 88 E 20 31 30.35 1028 10 16 0.00 0.00

Powered by AerisWeather